GW3823 Weather Reports


Display with metric or nautical units.
time (UTC)temp
F
wind
direction
speed
MPH
gust
MPH
rain 1hr
in
rain 24hr
in
rain mn
in
humidity
%
barometer
mb
20260906205805 85 238 6.0 23.0 0.00 0.00 0.00 23 1016.3
20260906205306 85 164 7.0 17.0 0.00 0.00 0.00 24 1012.6
20260906204305 85 196 6.0 13.0 0.00 0.00 0.00 22 1012.8
20260906203805 80 172 5.0 14.0 0.00 0.00 0.00 25 1012.7
20260906203305 85 215 6.0 20.0 0.00 0.00 0.00 25 1012.7
20260906202805 85 205 10.0 17.0 0.00 0.00 0.00 24 1012.6
20260906202307 85 169 5.0 16.0 0.00 0.00 0.00 26 1017.2
20260906201305 85 201 7.0 17.0 0.00 0.00 0.00 24 1013.0
20260906200804 85 218 8.0 17.0 0.00 0.00 0.00 26 1012.9
20260906195306 83 234 6.0 14.0 0.00 0.00 0.00 27 1017.7
20260906194804 83 189 6.0 17.0 0.00 0.00 0.00 25 1013.1
20260906194305 83 190 6.0 15.0 0.00 0.00 0.00 26 1017.3
20260906193805 83 205 5.0 9.0 0.00 0.00 0.00 25 1013.3
20260906193304 83 158 6.0 9.0 0.00 0.00 0.00 26 1017.9
20260906192804 83 180 5.0 10.0 0.00 0.00 0.00 25 1013.3
20260906192307 83 248 6.0 13.0 0.00 0.00 0.00 24 1018.6
20260906191805 83 158 7.0 18.0 0.00 0.00 0.00 25 1013.5
20260906191305 83 284 5.0 14.0 0.00 0.00 0.00 27 1017.5
20260906190804 83 249 3.0 12.0 0.00 0.00 0.00 26 1013.4
20260906190304 83 204 7.0 12.0 0.00 0.00 0.00 26 1018.8
20260906185804 79 238 3.0 7.0 0.00 0.00 0.00 25 1013.7
20260906185306 77 141 6.0 6.0 0.00 0.00 0.00 27 1013.6
20260906184804 78 199 5.0 8.0 0.00 0.00 0.00 26 1013.8
20260906184305 78 248 5.0 7.0 0.00 0.00 0.00 27 1013.9
20260906183804 77 260 6.0 7.0 0.00 0.00 0.00 28 1013.9
20260906183304 77 260 6.0 12.0 0.00 0.00 0.00 28 1014.1
20260906182805 77 155 3.0 5.0 0.00 0.00 0.00 29 1014.1
20260906182306 77 155 3.0 9.0 0.00 0.00 0.00 28 1014.3
20260906181805 77 155 3.0 9.0 0.00 0.00 0.00 29 1014.3
20260906181304 77 208 3.0 6.0 0.00 0.00 0.00 29 1014.3
20260906180805 77 208 3.0 6.0 0.00 0.00 0.00 29 1020.1
20260906180306 77 208 3.0 6.0 0.00 0.00 0.00 30 1014.6
20260906175306 75 178 2.0 9.0 0.00 0.00 0.00 32 1014.7
20260906174805 74 178 2.0 9.0 0.00 0.00 0.00 32 1014.9
20260906174304 75 178 4.0 10.0 0.00 0.00 0.00 32 1014.9
20260906173804 73 132 2.0 3.0 0.00 0.00 0.00 33 1015.0
20260906173304 73 149 2.0 3.0 0.00 0.00 0.00 34 1015.2
20260906172804 73 149 2.0 3.0 0.00 0.00 0.00 34 1015.3
20260906172306 73 149 2.0 3.0 0.00 0.00 0.00 34 1015.4
20260906171804 73 149 2.0 3.0 0.00 0.00 0.00 34 1015.5
20260906171304 73 149 2.0 3.0 0.00 0.00 0.00 34 1019.5
20260906170804 72 149 2.0 8.0 0.00 0.00 0.00 34 1015.6
20260906165804 70 156 3.0 6.0 0.00 0.00 0.00 37 1015.7
20260906165306 70 167 2.0 6.0 0.00 0.00 0.00 39 1015.7
20260906164805 70 167 2.0 6.0 0.00 0.00 0.00 38 1015.8
20260906164304 70 167 3.0 6.0 0.00 0.00 0.00 39 1015.8
20260906163805 70 195 3.0 5.0 0.00 0.00 0.00 36 1015.8
20260906163304 67 249 1.0 7.0 0.00 0.00 0.00 43 1015.9
20260906162804 65 166 1.0 1.0 0.00 0.00 0.00 46 1015.9
20260906162306 65 166 1.0 1.0 0.00 0.00 0.00 45 1016.0
20260906161804 65 166 1.0 5.0 0.00 0.00 0.00 46 1016.0
20260906161304 64 130 2.0 5.0 0.00 0.00 0.00 46 1016.0
20260906160804 64 130 2.0 8.0 0.00 0.00 0.00 47 1016.2
20260906160305 64 214 1.0 5.0 0.00 0.00 0.00 47 1016.5
20260906155804 62 179 2.0 6.0 0.00 0.00 0.00 49 1020.7
20260906155306 61 167 2.0 8.0 0.00 0.00 0.00 51 1016.2
20260906154805 61 128 3.0 8.0 0.00 0.00 0.00 51 1016.2
20260906153804 62 155 3.0 6.0 0.00 0.00 0.00 51 1016.0
20260906152804 59 44 3.0 5.0 0.00 0.00 0.00 53 1016.3
20260906152306 59 62 2.0 8.0 0.00 0.00 0.00 55 1026.2
20260906151304 56 62 3.0 8.0 0.00 0.00 0.00 62 1016.6
20260906150805 56 42 5.0 5.0 0.00 0.00 0.00 56 1016.7
20260906150304 54 64 3.0 3.0 0.00 0.00 0.00 66 1016.6
20260906145804 54 85 2.0 3.0 0.00 0.00 0.00 66 1016.6
20260906145306 53 93 1.0 3.0 0.00 0.00 0.00 66 1016.7
20260906144304 54 152 2.0 5.0 0.00 0.00 0.00 64 1016.8
20260906143804 54 38 3.0 8.0 0.00 0.00 0.00 64 1027.1
20260906143305 54 59 6.0 8.0 0.00 0.00 0.00 65 1016.6
20260906142803 53 48 2.0 7.0 0.00 0.00 0.00 65 1016.5
20260906141804 53 50 3.0 6.0 0.00 0.00 0.00 65 1016.7
20260906141304 53 61 4.0 8.0 0.00 0.00 0.00 67 1026.9
20260906140804 52 47 6.0 8.0 0.00 0.00 0.00 69 1016.8
20260906140304 52 56 3.0 5.0 0.00 0.00 0.00 70 1016.8
20260906135804 51 49 4.0 5.0 0.00 0.00 0.00 70 1016.9
20260906135306 50 204 2.0 5.0 0.00 0.00 0.00 72 1016.8
20260906134804 50 170 2.0 5.0 0.00 0.00 0.00 72 1016.7
20260906134305 50 198 2.0 7.0 0.00 0.00 0.00 72 1016.6
20260906133804 51 38 5.0 8.0 0.00 0.00 0.00 68 1025.8
20260906133304 50 73 6.0 8.0 0.00 0.00 0.00 73 1016.7
20260906132804 49 63 5.0 8.0 0.00 0.00 0.00 72 1016.6
20260906132306 50 51 5.0 8.0 0.00 0.00 0.00 71 1016.4
20260906131804 49 58 5.0 7.0 0.00 0.00 0.00 72 1021.4
20260906131304 50 52 6.0 7.0 0.00 0.00 0.00 72 1016.3
20260906130804 49 59 2.0 5.0 0.00 0.00 0.00 73 1020.5
20260906125804 49 66 2.0 6.0 0.00 0.00 0.00 73 1016.2
20260906125306 50 56 5.0 7.0 0.00 0.00 0.00 72 1016.2
20260906124804 50 31 5.0 7.0 0.00 0.00 0.00 71 1016.1
20260906124304 49 48 3.0 6.0 0.00 0.00 0.00 73 1016.1
20260906123804 49 48 4.0 6.0 0.00 0.00 0.00 72 1016.1
20260906123304 48 55 1.0 3.0 0.00 0.00 0.00 74 1025.7
20260906122306 48 40 0.0 2.0 0.00 0.00 0.00 74 1016.2
20260906121304 49 200 1.0 2.0 0.00 0.00 0.00 75 1016.0
20260906120804 49 142 1.0 2.0 0.00 0.00 0.00 73 1025.1
20260906115805 50 184 2.0 5.0 0.00 0.00 0.00 73 1016.1
20260906114804 50 55 2.0 8.0 0.00 0.00 0.00 73 1016.0
20260906114304 50 44 5.0 8.0 0.00 0.00 0.00 72 1016.0
20260906113804 50 52 4.0 6.0 0.00 0.00 0.00 72 1016.1
20260906112804 51 33 5.0 7.0 0.00 0.00 0.00 62 1016.1
20260906112306 50 62 5.0 9.0 0.00 0.00 0.00 72 1020.5
20260906111804 51 60 6.0 10.0 0.00 0.00 0.00 61 1016.1
20260906111304 50 44 4.0 6.0 0.00 0.00 0.00 71 1020.0
20260906110804 51 40 4.0 6.0 0.00 0.00 0.00 71 1016.1
20260906110304 51 68 5.0 7.0 0.00 0.00 0.00 68 1021.6
20260906105804 51 14 3.0 6.0 0.00 0.00 0.00 71 1016.2
20260906104304 51 35 2.0 6.0 0.00 0.00 0.00 67 1016.2
20260906103304 51 68 2.0 8.0 0.00 0.00 0.00 66 1016.0
20260906102803 51 77 6.0 8.0 0.00 0.00 0.00 65 1016.0
20260906101804 51 69 5.0 7.0 0.00 0.00 0.00 66 1015.9
20260906101304 50 79 5.0 6.0 0.00 0.00 0.00 67 1016.1
20260906095804 50 36 1.0 6.0 0.00 0.00 0.00 68 1024.9
20260906095306 50 46 2.0 6.0 0.00 0.00 0.00 66 1015.9
20260906094805 51 68 2.0 9.0 0.00 0.00 0.00 66 1015.8
20260906093804 52 70 5.0 12.0 0.00 0.00 0.00 64 1015.9
20260906093304 51 65 7.0 12.0 0.00 0.00 0.00 64 1015.9
20260906092803 52 51 7.0 10.0 0.00 0.00 0.00 64 1015.8
20260906092306 51 47 5.0 10.0 0.00 0.00 0.00 65 1016.0
20260906091304 51 77 5.0 7.0 0.00 0.00 0.00 65 1015.9
20260906090303 51 59 5.0 7.0 0.00 0.00 0.00 64 1021.3
20260906085804 52 60 5.0 9.0 0.00 0.00 0.00 65 1015.9
20260906085306 53 47 4.0 10.0 0.00 0.00 0.00 65 1015.8
20260906084804 52 60 7.0 10.0 0.00 0.00 0.00 64 1016.0
20260906083804 52 47 6.0 10.0 0.00 0.00 0.00 63 1015.8
20260906083304 51 44 2.0 5.0 0.00 0.00 0.00 64 1016.0
20260906082306 52 55 2.0 10.0 0.00 0.00 0.00 63 1015.8
20260906081804 53 59 7.0 12.0 0.00 0.00 0.00 62 1015.8
20260906081306 52 76 7.0 12.0 0.00 0.00 0.00 62 1020.2
20260906080807 53 52 6.0 10.0 0.00 0.00 0.00 62 1015.6
20260906080306 52 51 5.0 13.0 0.00 0.00 0.00 63 1015.8
20260906075806 54 73 5.0 10.0 0.00 0.00 0.00 60 1015.8
20260906075307 53 80 6.0 10.0 0.00 0.00 0.00 59 1015.7
20260906074806 54 65 6.0 14.0 0.00 0.00 0.00 57 1015.6
20260906074306 55 62 6.0 10.0 0.00 0.00 0.00 59 1015.7
20260906073806 53 71 8.0 10.0 0.00 0.00 0.00 60 1015.7
20260906073306 53 84 7.0 12.0 0.00 0.00 0.00 59 1015.8
20260906072806 54 80 6.0 12.0 0.00 0.00 0.00 57 1015.9
20260906071306 53 104 3.0 8.0 0.00 0.00 0.00 59 1016.0
20260906070806 53 73 4.0 8.0 0.00 0.00 0.00 58 1019.7
20260906070306 55 51 2.0 3.0 0.00 0.00 0.00 57 1015.8
20260906065806 54 114 1.0 2.0 0.00 0.00 0.00 60 1019.3
20260906065306 54 55 0.0 1.0 0.00 0.00 0.00 59 1015.8
20260906064807 54 169 1.0 2.0 0.00 0.00 0.00 59 1024.4
20260906064306 54 72 0.0 5.0 0.00 0.00 0.00 57 1015.6
20260906063306 54 75 5.0 9.0 0.00 0.00 0.00 55 1015.9
20260906062806 55 69 2.0 5.0 0.00 0.00 0.00 50 1015.6
20260906062306 55 63 1.0 5.0 0.00 0.00 0.00 57 1015.6
20260906060806 56 68 6.0 9.0 0.00 0.00 0.00 53 1018.3
20260906060307 55 34 2.0 5.0 0.00 0.00 0.00 54 1015.6
20260906055806 56 34 4.0 5.0 0.00 0.00 0.00 54 1015.6
20260906055306 57 86 3.0 5.0 0.00 0.00 0.00 52 1015.6
20260906054806 56 11 1.0 7.0 0.00 0.00 0.00 53 1015.5
20260906054306 57 72 6.0 7.0 0.00 0.00 0.00 52 1015.5
20260906053806 56 55 2.0 5.0 0.00 0.00 0.00 52 1015.5
20260906053306 56 52 2.0 14.0 0.00 0.00 0.00 50 1023.4
20260906052806 56 58 8.0 14.0 0.00 0.00 0.00 50 1015.5
20260906052306 56 70 5.0 9.0 0.00 0.00 0.00 50 1018.4
20260906051807 58 66 5.0 9.0 0.00 0.00 0.00 48 1015.5
20260906051306 56 45 3.0 12.0 0.00 0.00 0.00 49 1020.0
20260906050806 56 48 4.0 7.0 0.00 0.00 0.00 49 1015.4
20260906050306 57 63 5.0 9.0 0.00 0.00 0.00 50 1015.5
20260906044806 59 74 3.0 7.0 0.00 0.00 0.00 46 1015.5
20260906044306 60 58 3.0 7.0 0.00 0.00 0.00 45 1015.6
20260906043806 60 51 2.0 3.0 0.00 0.00 0.00 46 1015.5
20260906042806 59 73 4.0 12.0 0.00 0.00 0.00 46 1015.7
20260906042307 60 66 9.0 12.0 0.00 0.00 0.00 45 1015.7
20260906041805 61 77 5.0 8.0 0.00 0.00 0.00 44 1015.5
20260906041306 61 20 6.0 9.0 0.00 0.00 0.00 43 1015.5
20260906040806 62 63 5.0 13.0 0.00 0.00 0.00 42 1015.5
20260906035807 62 99 3.0 12.0 0.00 0.00 0.00 43 1017.1
20260906035306 61 61 7.0 13.0 0.00 0.00 0.00 44 1015.8
20260906034806 62 57 8.0 16.0 0.00 0.00 0.00 43 1016.8
20260906034307 60 68 10.0 16.0 0.00 0.00 0.00 44 1015.7
20260906033806 61 57 7.0 14.0 0.00 0.00 0.00 44 1016.4
20260906033306 63 69 5.0 14.0 0.00 0.00 0.00 42 1017.3
20260906032806 62 61 9.0 13.0 0.00 0.00 0.00 43 1015.9
20260906032306 63 81 8.0 12.0 0.00 0.00 0.00 42 1016.7
20260906031806 63 81 5.0 10.0 0.00 0.00 0.00 42 1015.7
20260906031306 64 74 8.0 14.0 0.00 0.00 0.00 41 1016.8
20260906030806 62 74 7.0 16.0 0.00 0.00 0.00 43 1015.0
20260906030306 63 75 10.0 20.0 0.00 0.00 0.00 41 1014.8
20260906025806 62 64 9.0 15.0 0.00 0.00 0.00 42 1015.2
20260906025306 76 74 9.0 13.0 0.00 0.00 0.00 35 1016.0
20260906024806 62 70 7.0 12.0 0.00 0.00 0.00 42 1014.9
20260906024305 64 91 7.0 12.0 0.00 0.00 0.00 42 1015.7
20260906023806 67 56 5.0 8.0 0.00 0.00 0.00 42 1016.6
20260906023306 65 84 1.0 1.0 0.00 0.00 0.00 41 1015.6
20260906022806 68 91 1.0 2.0 0.00 0.00 0.00 41 1016.4
20260906021805 68 267 1.0 2.0 0.00 0.00 0.00 40 1016.5
20260906020806 69 57 2.0 6.0 0.00 0.00 0.00 38 1016.1
20260906020305 68 74 2.0 6.0 0.00 0.00 0.00 37 1015.0
20260906015306 67 55 4.0 7.0 0.00 0.00 0.00 37 1014.6
20260906014806 71 62 6.0 7.0 0.00 0.00 0.00 36 1015.5
20260906014306 72 34 2.0 6.0 0.00 0.00 0.00 32 1014.4
20260906013806 73 218 2.0 3.0 0.00 0.00 0.00 29 1013.9
20260906013306 73 224 2.0 3.0 0.00 0.00 0.00 32 1018.0
20260906012805 71 337 1.0 2.0 0.00 0.00 0.00 34 1013.9
20260906012306 74 341 1.0 5.0 0.00 0.00 0.00 33 1018.2
20260906011305 73 330 0.0 3.0 0.00 0.00 0.00 34 1014.0
20260906010806 73 34 2.0 3.0 0.00 0.00 0.00 32 1013.9
20260906010306 75 294 0.0 3.0 0.00 0.00 0.00 28 1013.8
20260906005806 74 295 0.0 3.0 0.00 0.00 0.00 28 1014.3
20260906005306 76 329 1.0 7.0 0.00 0.00 0.00 20 1015.1
20260906004806 75 193 5.0 8.0 0.00 0.00 0.00 28 1013.9
20260906004306 76 200 1.0 6.0 0.00 0.00 0.00 27 1014.7
20260906003806 77 178 2.0 8.0 0.00 0.00 0.00 26 1015.7
20260906003306 76 243 2.0 8.0 0.00 0.00 0.00 27 1014.4
20260906002806 77 178 3.0 13.0 0.00 0.00 0.00 26 1015.4
20260906002306 77 181 3.0 10.0 0.00 0.00 0.00 28 1014.2
20260906001805 78 199 3.0 13.0 0.00 0.00 0.00 27 1015.2
20260906001306 77 157 9.0 13.0 0.00 0.00 0.00 27 1013.7
20260906000805 78 98 2.0 10.0 0.00 0.00 0.00 26 1014.9
20260906000305 77 232 4.0 8.0 0.00 0.00 0.00 28 1013.6
20260905235805 78 206 3.0 12.0 0.00 0.00 0.00 27 1013.7
20260905234305 79 191 5.0 9.0 0.00 0.00 0.00 25 1013.4
20260905233805 79 232 3.0 8.0 0.00 0.00 0.00 26 1013.4
20260905233306 79 141 3.0 9.0 0.00 0.00 0.00 25 1013.4
20260905232806 78 205 3.0 7.0 0.00 0.00 0.00 26 1013.4
20260905232306 79 170 3.0 9.0 0.00 0.00 0.00 25 1013.5
20260905231806 78 218 4.0 9.0 0.00 0.00 0.00 26 1013.5
20260905230806 80 161 6.0 14.0 0.00 0.00 0.00 24 1013.4
20260905230305 80 211 3.0 10.0 0.00 0.00 0.00 24 1013.5
20260905225806 86 217 5.0 14.0 0.00 0.00 0.00 25 1013.6
20260905225306 86 188 5.0 14.0 0.00 0.00 0.00 24 1013.4
20260905224806 86 194 4.0 16.0 0.00 0.00 0.00 24 1013.3
20260905224306 86 205 5.0 16.0 0.00 0.00 0.00 24 1013.5
20260905223806 86 196 7.0 16.0 0.00 0.00 0.00 24 1013.5
20260905222806 86 208 7.0 15.0 0.00 0.00 0.00 23 1020.6
20260905222306 86 210 7.0 15.0 0.00 0.00 0.00 25 1013.5
20260905221806 86 195 5.0 12.0 0.00 0.00 0.00 24 1013.5
20260905221306 86 174 2.0 14.0 0.00 0.00 0.00 25 1013.4
20260905220806 86 206 5.0 14.0 0.00 0.00 0.00 25 1013.3
20260905215805 85 208 5.0 16.0 0.00 0.00 0.00 26 1013.6
20260905214805 85 157 6.0 16.0 0.00 0.00 0.00 26 1013.5
20260905213805 85 213 2.0 13.0 0.00 0.00 0.00 24 1021.2
20260905213306 85 224 6.0 16.0 0.00 0.00 0.00 26 1013.7
20260905212805 85 159 7.0 21.0 0.00 0.00 0.00 27 1018.3
20260905211806 85 191 7.0 22.0 0.00 0.00 0.00 26 1017.3
20260905211305 85 156 7.0 22.0 0.00 0.00 0.00 27 1013.8
20260905210806 85 212 2.0 13.0 0.00 0.00 0.00 28 1021.9
20260905210305 77 156 7.0 14.0 0.00 0.00 0.00 28 1013.9